Torna al catalogo

STARLINK-3184

AttivoComunicazioniVLEO
NORAD 51143·PAYLOAD·🇺🇸 United States

Lanciato Jan 19, 2022 da Cape Canaveral Space Force Station

Loading…

Prossimi Passaggi (prossime 24 ore)

TLE

AggiornatoSource: CelesTrak SupGP

Epoca: Sep 14, 2026, 14:02 UTC

1 51143C 22005AR  26257.58520833  .00043907  00000+0  12976-2 0  2575
2 51143  53.1565 165.4806 0001361 106.4284 309.8326 15.34360462    13

Traccia STARLINK-3184 in tempo reale con AllMySat

Download on the App Store